Terug naar catalogus

QIANFAN-179

ActiefCommunicatiePO
NORAD 69396·PAYLOAD·🇨🇳 China

Gelanceerd Jun 4, 2026 vanaf Taiyuan Satellite Launch Center

Loading…

Volgende Passages (komende 24 uur)

TLE

VersSource: Space-Track

Epoch: Sep 14, 2026, 21:22 UTC

1 69396U 26124Q   26257.89036887  .00000134  00000-0  18885-3 0  9990
2 69396  89.0045 352.4995 0001849  99.8389 260.2971 13.51028988 14193

Volg QIANFAN-179 in realtime met AllMySat

Download on the App Store